Regional Weather Roundup
Issued by NWS

Home | Current Version | Previous Version | Text Only | Print | Product List | Glossary Off
Versions: 1 2 3 4 5 6 7 8 9 10 11 12 13 14 15 16 17 18 19 20 21 22 23 24 25 26 27 28 29 30 31 32 33 34 35 36 37 38 39 40 41 42 43 44 45 46 47 48 49 50

153
ASUS43 KMPX 292101
RWRMN
WEATHER ROUNDUP FOR MINNESOTA
NATIONAL WEATHER SERVICE TWIN CITIES/CHANHASSEN MN
400 PM CDT MON AUG 29 2016


NOTE: "FAIR" INDICATES FEW OR NO CLOUDS BELOW 12,000 FEET WITH NO
SIGNIFICANT WEATHER AND/OR OBSTRUCTIONS TO VISIBILITY. N/A MEANS
CURRENT SKY AND/OR WEATHER CONDITIONS ARE NOT AVAILABLE.

MNZ060>063-068>070-292200-
   Twin Cities Metro

CITY           SKY/WX    TMP DP  RH WIND       PRES   REMARKS
TWIN CITIES    PTSUNNY   85  69  58 SW13      30.14F
ST PAUL        MOSUNNY   84  71  65 S9        30.14F
CRYSTAL        MOSUNNY   84  68  58 SW12      30.12F
BLAINE         PTSUNNY   84  70  61 SW13G18   30.14S
LAKEVILLE      PTSUNNY   82  72  69 S8        30.15F
EDEN PRAIRIE   MOSUNNY   86  72  62 SW14      30.13F HX  92
LAKEVILLE      PTSUNNY   82  72  69 S8        30.15F
SOUTH ST PAUL  PTSUNNY   84  69  58 S12G18    30.14F
LAKE ELMO      FAIR      82  72  69 S14       30.16S
$$
MNZ001>005-007-008-013>017-022>024-027-028-292200-
   Northwest Minnesota

CITY           SKY/WX    TMP DP  RH WIND       PRES   REMARKS
BEMIDJI        CLOUDY    76  69  79 W12       30.15S
HALLOCK        SUNNY     75  54  46 NW14G21   30.15F
ROSEAU         SUNNY     77  61  57 NW12G18   30.14R
WARROAD        SUNNY     79  63  57 W10G17    30.12S
THIEF RVR FALL SUNNY     77  61  57 NW13      30.16F
CROOKSTON      SUNNY     79  61  53 N13       30.16S
FOSSTON        MOSUNNY   79  64  61 NW6       30.16F
DETROIT LAKES  MOSUNNY   79  70  73 NW10      30.17S
MOORHEAD       MOSUNNY   81  68  65 N9G16     30.15F
PARK RAPIDS    CLOUDY    84  69  60 W13       30.14F
MAHNOMEN       FAIR      75  67  74 NW12      30.16F
$$
MNZ006-009>011-018-025>026-292200-
   North Central Minnesota

CITY           SKY/WX    TMP DP  RH WIND       PRES   REMARKS
BAUDETTE       PTSUNNY   79  64  60 NW12      30.11F
FLAG ISLAND    SUNNY     75  61  60 W5        30.10S
INTL FALLS     MOSUNNY   79  66  64 W9        30.10S
WASKISH        SUNNY     79  70  73 SW10      30.12F
BIG FORK       PTSUNNY   79  68  69 NW6       30.13F
LONGVILLE      CLOUDY    81  70  69 W6        30.14S
GRAND RAPIDS   CLOUDY    79  70  74 VRB3      30.15F
CRANE LAKE     CLOUDY    75  66  73 W3        30.11S
ORR            CLOUDY    75  66  73 CALM      30.10S
COOK           CLOUDY    75  66  73 W8        30.13S
WALKER         CLOUDY    79  69  73 W6        30.14S
$$
MNZ012-019>021-037-292200-
   Northeast Minnesota

CITY           SKY/WX    TMP DP  RH WIND       PRES   REMARKS
DULUTH         MOSUNNY   83  66  56 W15       30.14S
ELY            CLOUDY    75  64  69 W7        30.13R
HIBBING        CLOUDY    78  68  71 W7        30.13S
EVELETH        CLOUDY    78  68  72 W9        30.14S
DULUTH HARBOR  SUNNY     82  70  65 SW14      30.11F
TWO HARBORS    MOSUNNY   79  70  73 SW7       30.11S
SILVER BAY     PTSUNNY   77  66  69 S8        30.10S
GRAND MARAIS     N/A     69  63  81 W5        30.10F
G MARAIS ARPRT CLOUDY    73  61  64 S7        30.14F
$$
MNZ029>031-032-039>041-046>048-054>057-064-292200-
   West Central Minnesota

CITY           SKY/WX    TMP DP  RH WIND       PRES   REMARKS
FERGUS FALLS   CLOUDY    81  72  74 NW6       30.14F
WHEATON        SUNNY     86  72  62 CALM      30.14F HX  92
ALEXANDRIA     MOSUNNY   84  72  67 W8        30.16F
ELBOW LAKE     FAIR      83  71  67 SW3       30.14F HAZE
WADENA         SUNNY     82  70  65 SW6       30.14F
GLENWOOD       SUNNY     86  73  66 SW8       30.15S HX  93
APPLETON       SUNNY     84  72  65 S5        30.12S
BENSON         SUNNY     86  70  58 W6        30.13S HX  90
ORTONVILLE     SUNNY     86  72  62 CALM      30.12F HX  92
MADISON        CLOUDY    84  73  70 S8        30.12F HX  91
WILLMAR        FAIR      84  73  70 S5        30.15F HX  91
$$
MNZ033>034-036-042>043-049>051-058-059-292200-
   Central Minnesota

CITY           SKY/WX    TMP DP  RH WIND       PRES   REMARKS
ST CLOUD       SUNNY     86  73  65 SW13      30.13F HX  93
SAUK CENTRE    MOCLDY    85  73  67 SW10      30.14S HX  92
PAYNESVILLE    MOSUNNY   85  71  62 S7        30.14F HX  90
AITKIN         SUNNY     84  63  48 SW7       30.13S
PINE RIVER     CLOUDY    81  70  69 W5        30.17S
BRAINERD       MOSUNNY   83  68  60 W7        30.14F
STAPLES        PTSUNNY   82  66  57 W9        30.15F
LONG PRAIRIE   CLOUDY    82  72  69 SW7       30.15F
LITTLE FALLS   PTSUNNY   82  70  65 SW6       30.14S
LITCHFIELD     MOSUNNY   84  73  70 S5        30.14F HX  91
BUFFALO        CLOUDY    83  69  62 S10G16    30.15F
MAPLE LAKE     CLOUDY    85  74  69 S8        30.15F HX  92
HUTCHINSON     SUNNY     84  75  74 S6        30.16S HX  92
$$
MNZ037-044-045-052-053-292200-
   East Central Minnesota

CITY           SKY/WX    TMP DP  RH WIND       PRES   REMARKS
PRINCETON      SUNNY     88  72  58 S9G16     30.13F HX  94
MORA           MOSUNNY   82  70  65 SW9       30.15S
CAMBRIDGE      CLOUDY    88  70  55 SW9       30.12F HX  92
RUSH CITY      LGT RAIN  85  70  61 SW8       30.13F HX  90
MOOSE LAKE     MOSUNNY   81  68  65 SW7       30.12S
HINCKLEY       FAIR      86  72  62 SW8       30.13S HX  92
CLOQUET        SUNNY     82  64  54 W7        30.14S
MCGREGOR       SUNNY     82  66  57 W7        30.15S
$$
MNZ071>073-080-081-089-090-097-098-292200-
   Southwest Minnesota

CITY           SKY/WX    TMP DP  RH WIND       PRES   REMARKS
MONTEVIDEO     MOSUNNY   88  73  62 SW9       30.14F HX  96
GRANITE FALLS  MOSUNNY   86  74  68 S9        30.14F HX  94
CANBY          CLOUDY    88  71  56 S7        30.13F HX  94
MARSHALL       PTSUNNY   86  73  65 SW14      30.13F HX  93
REDWOOD FALLS  MOSUNNY   85  72  65 S14       30.13F HX  91
OLIVIA         MOSUNNY   82  72  69 SW9       30.13F
PIPESTONE        N/A     82  72  69 S9        30.17F
WINDOM         MOSUNNY   84  68  58 S12       30.17S
WORTHINGTON    MOSUNNY   83  69  62 S9        30.17F
JACKSON        CLOUDY    84  70  61 S8        30.18F
TRACY          PTSUNNY   84  72  67 S12       30.15F HX  90
SLAYTON        CLOUDY    81  70  69 S7        30.17F
$$
MNZ065>067-074>077-082>085-091>093-292200-
   South Central Minnesota

CITY           SKY/WX    TMP DP  RH WIND       PRES   REMARKS
NEW ULM        CLOUDY    84  72  65 S13       30.13F
ST JAMES       PTSUNNY   82  73  74 S8        30.16F
FAIRMONT       MOSUNNY   82  68  62 S13       30.17F
GLENCOE        CLOUDY    85  77  78 S9        30.14F HX  96
FARIBAULT      PTSUNNY   84  73  70 S8        30.17S HX  91
OWATONNA       CLOUDY    82  72  69 S9        30.18S
WASECA         CLOUDY    77  68  73 S9        30.19S
ALBERT LEA     PTSUNNY   81  68  65 SW5       30.18F
$$
MNZ078>079-086>088-094>096-292200-
   Southeast Minnesota

CITY           SKY/WX    TMP DP  RH WIND       PRES   REMARKS
ROCHESTER      CLOUDY    82  73  74 SW9       30.19F
RED WING       MOSUNNY   84  70  61 S5        30.14S
STANTON        MOSUNNY   86  70  58 S8        30.14F HX  90
DODGE CENTER   CLOUDY    81  72  74 S9        30.19F
WINONA         CLOUDY    81  70  69 SW3       30.16F
AUSTIN         PTSUNNY   81  72  74 SW10      30.18F
PRESTON        CLOUDY    78  71  77 S3        30.19F
$$
ABBREVIATIONS USED IN REMARKS
   TC - TEMPERATURES IN CELSIUS
  WCI - WIND CHILL INDEX
   HX - HEAT INDEX
  VSB - VISIBILITY
$$




USA.gov is the U.S. government's official web portal to all federal, state and local government web resources and services.